Notl Virgil

*Note: All times are displayed in the local standard time of the station location.
**Rain - Equipment is designed to accurately record liquid precipitation; under conditions when precipitation is not in liquid form, the data displayed may not properly reflect rainfall values.

Date Max Temp
(°C)
Min Temp
(°C)
Avg Temp
(°C)
Rain (mm) Avg RH (%) Solar Rad (kJ/m2)
Fri, Feb 15, 2019 5.7 -3.7 1.8 2.2 75.4 3747.0
Thu, Feb 14, 2019 5.3 -4.0 0.1 0.0 69.5 5522.3
Wed, Feb 13, 2019 1.6 -4.1 -2.0 0.4 78.9 4163.8
Tue, Feb 12, 2019 3.0 -4.9 -1.9 0.2 88.3 1918.9
Mon, Feb 11, 2019 -1.8 -4.6 -3.1 0.0 74.6 2454.9
Sun, Feb 10, 2019 -2.7 -8.2 -5.3 0.0 71.3 4892.7
Sat, Feb 09, 2019 -3.5 -9.2 -6.3 0.0 65.6 4307.2
DateTime Avg Temp (°C) Rain (mm) RH (%) Solar Rad (kJ/m2)
Sat, Feb 16, 2019 16:00 -1.8 0.0 64.6 889.2
Sat, Feb 16, 2019 15:00 -2.2 0.0 66.3 1100.3
Sat, Feb 16, 2019 14:00 -2.1 0.0 65.5 1467.9
Sat, Feb 16, 2019 13:00 -2.9 0.0 68.3 847.3
Sat, Feb 16, 2019 12:00 -3.1 0.0 68.8 686.3
Sat, Feb 16, 2019 11:00 -3.0 0.0 68.5 1196.0
Sat, Feb 16, 2019 10:00 -3.1 0.0 66.4 807.3
Sat, Feb 16, 2019 09:00 -3.2 0.0 66.3 462.5
Sat, Feb 16, 2019 08:00 -3.8 0.0 68.7 82.1
Sat, Feb 16, 2019 07:00 -3.7 0.0 69.1 0.6
Sat, Feb 16, 2019 06:00 -2.7 0.0 69.3 0.6
Sat, Feb 16, 2019 05:00 -2.8 0.0 78.4 0.0
Sat, Feb 16, 2019 04:00 -3.1 0.0 80.5 0.0
Sat, Feb 16, 2019 03:00 -3.1 0.0 78.7 0.3
Sat, Feb 16, 2019 02:00 -3.1 0.0 75.3 0.3
Sat, Feb 16, 2019 01:00 -3.3 0.0 73.8 0.3
Sat, Feb 16, 2019 00:00 -3.6 0.0 73.0 0.6
Fri, Feb 15, 2019 23:00 -3.5 0.0 71.6 0.9
Fri, Feb 15, 2019 22:00 -3.3 0.0 71.1 1.2
Fri, Feb 15, 2019 21:00 -2.7 0.0 68.9 0.3
Fri, Feb 15, 2019 20:00 -1.8 0.0 70.5 0.3
Fri, Feb 15, 2019 19:00 -1.4 0.0 69.5 0.3
Fri, Feb 15, 2019 18:00 -0.8 0.0 68.2 20.6
Fri, Feb 15, 2019 17:00 0.0 0.0 68.8 90.1
Fri, Feb 15, 2019 16:00 0.7 0.0 72.0 397.2
Fri, Feb 15, 2019 15:00 1.4 0.0 69.5 769.1
Fri, Feb 15, 2019 14:00 2.2 0.0 66.5 472.0
Fri, Feb 15, 2019 13:00 2.8 0.0 66.4 515.5
Fri, Feb 15, 2019 12:00 3.3 0.0 71.9 488.3
Fri, Feb 15, 2019 11:00 4.1 0.0 78.6 357.4
Fri, Feb 15, 2019 10:00 4.8 0.2 86.5 569.8
Fri, Feb 15, 2019 09:00 4.6 0.0 90.2 47.4
Fri, Feb 15, 2019 08:00 4.9 0.2 92.0 13.9
Fri, Feb 15, 2019 07:00 4.5 0.2 94.4 0.0
Fri, Feb 15, 2019 06:00 4.4 0.8 93.3 0.9
Fri, Feb 15, 2019 05:00 4.4 0.6 89.5 0.0
Fri, Feb 15, 2019 04:00 5.2 0.2 76.0 0.3
Fri, Feb 15, 2019 03:00 4.9 0.0 69.0 0.6
Fri, Feb 15, 2019 02:00 4.2 0.0 65.1 0.0
Fri, Feb 15, 2019 01:00 4.3 0.0 66.9 0.3
Fri, Feb 15, 2019 00:00 5.0 0.0 63.7 0.3
Thu, Feb 14, 2019 23:00 4.9 0.0 58.2 0.6
Thu, Feb 14, 2019 22:00 3.0 0.0 67.6 0.3
Thu, Feb 14, 2019 21:00 1.7 0.0 72.5 0.6
Thu, Feb 14, 2019 20:00 1.5 0.0 69.5 0.6
Thu, Feb 14, 2019 19:00 1.7 0.0 65.6 0.0
Thu, Feb 14, 2019 18:00 2.2 0.0 61.1 47.7
Thu, Feb 14, 2019 17:00 2.7 0.0 58.4 189.6


asterix Register now to access more data! asterix